Location: Unspecified
(0.0000°N, 0.0000°E)
Time: 05:53:08
(UTC+00:00)

S-56A Canister/Altair - All Passes

Search period start: 23 October 2014 00:00
Search period end: 02 November 2014 00:00
Orbit: 633 x 2503 km, 38.9° (Epoch: 20 October)

Date Brightness Start Highest point End Pass type
(mag) Time Alt. Az. Time Alt. Az. Time Alt. Az.
23 Oct - 04:03:27 10° NW 04:09:06 62° NE 04:13:34 10° ESE visible
23 Oct - 06:11:59 10° SW 06:12:40 10° SW 06:13:20 10° SSW daylight
23 Oct - 14:34:38 10° SSW 14:45:08 41° SE 14:58:28 10° ENE daylight
23 Oct - 16:38:29 10° WSW 16:51:34 72° NW 17:06:45 10° NE daylight
23 Oct - 18:48:16 10° W 18:59:25 25° NW 19:10:27 10° NNE visible
24 Oct - 03:31:02 10° NW 03:36:59 49° NE 03:41:31 10° ESE visible
24 Oct - 05:37:59 10° WSW 05:40:31 14° SW 05:42:55 10° S daylight
24 Oct - 14:02:42 10° SSW 14:12:17 35° SE 14:24:36 10° ENE daylight
24 Oct - 16:05:52 10° SW 16:18:26 80° NW 16:33:45 10° NE daylight
24 Oct - 18:14:31 10° W 18:26:09 29° NW 18:38:05 10° NNE visible
25 Oct - 02:58:35 10° NNW 03:04:48 40° NE 03:09:26 10° ESE visible
25 Oct - 05:04:48 10° W 05:08:25 19° SW 05:11:41 10° S visible
25 Oct - 13:30:56 10° SSW 13:39:31 29° SE 13:50:33 10° E daylight
25 Oct - 15:33:24 10° SW 15:45:22 88° NW 16:00:39 10° NE daylight
25 Oct - 17:41:02 10° W 17:52:53 33° NW 18:05:35 10° NNE visible
26 Oct - 02:26:04 10° NNW 02:32:33 34° NE 02:37:18 10° E visible
26 Oct - 04:31:48 10° W 04:36:22 26° SW 04:40:13 10° SSE visible
26 Oct - 12:59:22 10° S 13:06:49 24° SE 13:16:17 10° E daylight
26 Oct - 15:01:04 10° SW 15:12:22 83° SE 15:27:25 10° NE daylight
26 Oct - 17:07:46 10° W 17:19:38 37° NW 17:32:56 10° NNE daylight
26 Oct - 19:25:26 10° NW 19:29:16 11° NNW 19:33:02 10° N visible
27 Oct - 01:53:31 10° NNW 02:00:13 30° NNE 02:05:06 10° E visible
27 Oct - 03:58:52 10° WNW 04:04:21 35° SW 04:08:39 10° SSE visible
27 Oct - 12:28:02 10° S 12:34:10 19° SE 12:41:45 10° E daylight
27 Oct - 14:28:51 10° SW 14:39:28 74° SE 14:54:04 10° NE daylight
27 Oct - 16:34:43 10° WSW 16:46:25 41° NW 17:00:10 10° NNE daylight
27 Oct - 18:49:43 10° NW 18:55:47 13° NNW 19:01:51 10° N visible
28 Oct - 01:20:55 10° NNW 01:27:47 27° NNE 01:32:50 10° E night (unlit)
28 Oct - 03:25:57 10° WNW 03:32:18 47° SW 03:36:59 10° SSE visible
28 Oct - 11:57:10 10° SSE 12:01:35 14° SE 12:06:45 10° ESE daylight
28 Oct - 13:56:45 10° SW 14:06:39 64° SE 14:20:38 10° ENE daylight
28 Oct - 16:01:52 10° WSW 16:13:15 45° NW 16:27:18 10° NNE daylight
28 Oct - 18:14:55 10° WNW 18:22:20 15° NNW 18:29:55 10° N visible
29 Oct - 00:48:15 10° NNW 00:55:16 24° NNE 01:00:30 10° E night (unlit)
29 Oct - 02:53:02 10° WNW 03:00:14 62° SW 03:05:16 10° SE visible
29 Oct - 11:28:40 10° SE 11:29:01 10° SE 11:29:24 10° SE daylight
29 Oct - 13:24:46 10° SSW 13:33:56 55° SE 13:47:05 10° ENE daylight
29 Oct - 15:29:10 10° WSW 15:40:08 51° NW 15:54:20 10° NNE daylight
29 Oct - 17:40:38 10° WNW 17:48:55 17° NNW 17:57:40 10° N daylight
30 Oct - 00:15:33 10° NNW 00:22:40 22° NNE 00:28:04 10° ENE night (unlit)
30 Oct - 02:20:06 10° NW 02:28:05 79° SW 02:33:28 10° SE visible
30 Oct - 12:52:54 10° SSW 13:01:20 46° SE 13:13:26 10° ENE daylight
30 Oct - 14:56:37 10° WSW 15:07:06 56° NW 15:21:17 10° NE daylight
30 Oct - 17:06:44 10° WNW 17:15:32 20° NNW 17:25:11 10° NNE daylight
30 Oct - 23:42:49 10° NNW 23:49:59 20° NNE 23:55:32 10° ENE night (unlit)
31 Oct - 01:47:09 10° NW 01:55:52 85° NE 02:01:36 10° SE visible
31 Oct - 03:57:43 10° WSW 03:59:20 11° SW 04:00:50 10° SSW visible
31 Oct - 12:21:09 10° SSW 12:28:48 38° SE 12:39:41 10° ENE daylight
31 Oct - 14:24:12 10° WSW 14:34:08 63° NW 14:48:10 10° NE daylight
31 Oct - 16:33:08 10° WNW 16:42:13 22° NNW 16:52:33 10° NNE daylight
31 Oct - 23:10:02 10° NNW 23:17:11 19° NNE 23:22:51 10° ENE night (unlit)
01 Nov - 01:14:11 10° NW 01:23:34 72° NE 01:29:41 10° ESE night (unlit)
01 Nov - 03:23:16 10° W 03:27:11 16° SW 03:30:29 10° S visible
01 Nov - 11:49:32 10° SSW 11:56:22 31° SE 12:05:51 10° ENE daylight
01 Nov - 13:51:55 10° WSW 14:01:17 71° NW 14:14:59 10° NE daylight
01 Nov - 15:59:49 10° W 16:08:58 24° NNW 16:19:48 10° NNE daylight
01 Nov - 22:37:15 10° N 22:44:18 17° NNE 22:50:02 10° ENE night (unlit)
